GFSCGP_925_spd_147.txt.gz
Wind_Speed
14 11 12 16 12 9 11 3 8 10 7 8 11 18 14 14 16 16 16 15 15 16 16 20 20 19 19 18 18 17 17 16 15 15 14 13 12 13 12 12 10 9 10 11
9 15 15 6 2 5 8 8 9 7 7 10 7 14 16 14 14 17 17 17 16 16 17 20 20 20 20 20 19 19 19 19 19 16 15 12 9 10 9 8 8 9 12 13
15 17 13 6 11 11 12 11 11 8 10 12 4 12 15 16 14 16 16 17 17 17 17 17 21 21 21 21 21 20 20 20 19 18 13 11 10 12 13 14 10 11 12 11
15 5 9 12 15 16 16 10 5 7 7 13 13 9 16 18 15 15 17 17 16 17 16 17 20 22 22 22 21 20 19 18 17 15 14 12 12 7 12 11 4 8 8 10
16 11 15 16 15 12 6 2 7 11 12 16 11 9 18 18 18 19 17 18 18 17 18 18 21 22 22 21 21 21 20 18 17 17 16 13 12 10 8 3 1 7 11 10
15 13 16 17 15 8 4 5 6 9 13 12 10 9 14 17 16 16 22 22 19 19 18 18 22 23 21 21 20 20 20 19 17 17 16 15 12 9 6 4 6 8 9 9
18 12 13 14 12 8 9 12 8 7 9 8 10 7 8 4 9 5 7 23 22 20 19 18 17 21 21 21 21 19 18 19 19 19 17 15 12 11 9 6 6 6 11 13
16 16 21 13 14 11 13 18 10 4 11 10 6 7 5 8 3 3 6 13 22 21 20 19 20 22 23 23 21 19 19 18 18 18 17 15 13 13 12 13 7 9 13 12
17 18 22 18 19 16 14 14 12 6 4 5 9 5 3 7 5 2 7 13 15 20 20 20 22 25 24 23 23 22 20 19 18 18 16 15 14 13 12 6 5 9 8 11
8 13 20 14 15 15 11 11 7 6 5 6 7 2 3 6 1 4 5 9 14 19 18 19 18 25 24 23 22 21 20 19 19 18 16 15 14 13 11 8 8 5 7 9
20 12 19 16 15 15 13 11 11 14 5 5 6 8 11 7 4 4 1 3 6 8 14 16 17 22 24 23 21 19 19 18 18 17 16 15 13 12 10 8 8 8 7 10
22 10 13 20 18 20 19 19 16 10 9 8 8 11 14 10 5 2 4 3 6 11 14 12 13 17 15 17 16 16 17 17 16 14 13 12 12 10 9 9 10 10 10 12
19 16 14 16 9 11 14 14 18 15 9 5 7 7 8 8 6 1 5 5 5 6 13 11 9 10 11 12 13 14 12 12 11 10 11 10 10 10 9 11 12 12 14 17
20 17 19 16 15 16 19 21 18 13 9 12 13 12 12 10 4 4 1 3 8 9 4 6 8 4 8 9 8 7 8 7 7 6 7 7 7 9 12 13 15 17 19 22
18 22 20 21 17 20 20 21 16 17 14 14 2 6 11 11 5 3 2 3 4 5 7 9 9 7 7 7 8 7 6 6 4 1 3 8 9 12 15 17 20 21 22 24
21 15 20 21 23 10 12 21 20 19 16 14 16 8 15 10 4 3 1 2 1 4 7 5 6 7 7 8 6 4 4 3 1 5 8 11 14 16 19 21 22 23 24 25
19 17 16 20 19 16 18 16 15 14 14 16 12 6 11 8 3 3 5 2 0 3 5 6 6 7 10 9 4 5 3 4 6 8 12 15 17 20 22 24 25 25 25 26
20 16 12 14 16 22 12 19 19 16 14 7 4 8 9 7 7 6 1 2 6 9 10 9 11 12 8 7 6 5 6 8 10 12 15 17 19 21 23 24 25 25 25 25
22 18 16 14 18 9 5 7 13 11 12 8 6 9 7 8 11 7 9 10 12 13 13 12 11 9 8 7 8 8 9 11 13 14 15 16 17 19 22 24 24 25 27 26
14 13 14 13 18 20 15 17 9 6 11 13 9 11 9 8 10 11 12 13 13 13 11 10 8 9 8 8 8 8 9 10 11 14 16 18 20 22 24 26 27 27 26 27
14 13 17 13 16 7 12 15 11 13 3 15 11 8 9 7 8 15 13 13 15 12 10 8 7 7 6 6 8 9 11 11 14 16 18 20 21 23 24 24 24 25 26 26
15 14 14 16 17 10 14 15 12 9 10 10 9 9 12 13 16 14 13 12 12 10 8 6 6 6 6 8 10 11 12 15 16 18 19 21 22 22 23 25 25 25 24 23
17 16 14 2 3 16 16 11 11 10 10 8 8 11 14 14 14 14 12 10 9 8 7 6 7 7 8 12 13 14 15 14 17 18 19 20 22 23 25 25 24 23 19 20
5 2 4 8 8 13 13 10 9 7 9 9 11 13 14 14 13 12 9 7 7 8 9 9 9 9 10 11 12 12 12 14 18 19 20 21 22 21 23 24 24 19 20 24
9 7 8 14 12 13 10 10 12 12 13 14 12 12 13 13 11 10 8 7 8 8 7 7 6 8 9 11 11 12 13 16 18 19 20 21 22 24 24 22 22 21 21 21
6 10 10 9 18 3 15 14 15 16 16 14 15 14 12 11 8 10 8 9 8 7 6 7 8 10 11 12 13 13 15 16 17 18 19 21 23 23 24 23 24 19 19 19

GFSCGP_925_spd_150.txt.gz
Wind_Speed
15 11 14 17 16 11 13 9 11 13 13 11 22 18 16 20 19 18 16 15 16 16 18 22 22 22 23 21 21 20 18 17 16 16 14 14 12 14 12 14 16 10 8 9
15 15 18 16 10 2 10 9 13 12 8 11 18 19 17 14 19 20 19 17 17 17 17 21 23 23 23 23 23 23 21 18 21 16 17 16 8 10 9 6 13 16 12 10
18 17 16 16 3 7 9 11 11 12 9 10 11 17 19 16 13 19 20 19 17 18 18 17 21 23 24 25 26 24 24 23 20 20 16 13 11 14 9 11 20 27 13 14
17 19 16 8 9 10 13 11 5 9 13 11 13 8 17 18 15 19 19 20 19 19 17 16 21 22 23 24 26 25 26 23 22 20 18 15 12 9 14 13 9 11 12 11
18 17 9 10 13 16 14 8 2 6 9 12 15 8 16 18 17 15 18 21 20 20 19 19 22 25 25 25 26 27 26 24 22 22 20 16 13 13 16 10 11 11 12 13
18 16 11 15 14 14 12 2 5 8 11 12 14 9 16 16 19 18 19 20 19 21 20 19 24 26 25 25 26 28 28 26 24 21 21 21 13 12 7 4 2 7 4 8
18 19 16 13 15 17 9 8 7 8 8 11 16 8 10 9 17 8 18 19 19 19 20 20 20 23 24 26 27 28 31 27 25 24 21 20 18 14 11 8 12 6 7 7
15 14 14 16 20 15 11 15 11 4 6 10 9 5 3 16 11 3 4 13 20 19 19 22 22 29 28 27 28 29 31 28 27 25 24 22 19 17 17 17 14 10 6 6
16 19 20 19 16 12 14 14 19 15 16 8 11 8 10 8 4 8 3 7 13 21 19 19 21 28 29 26 28 26 31 28 27 26 25 24 21 20 19 13 15 11 7 6
17 12 20 21 15 20 17 14 12 7 11 8 7 11 8 12 8 8 0 8 9 12 18 18 18 27 30 29 27 27 28 27 26 27 26 25 24 20 18 15 12 9 8 8
22 18 14 20 17 19 16 12 10 13 9 7 4 7 12 10 9 6 3 2 7 9 13 15 16 29 29 30 30 33 37 35 28 23 22 23 24 20 16 13 8 9 9 11
24 12 14 20 16 15 15 16 14 10 8 9 5 10 14 9 8 4 5 7 7 12 8 4 6 10 22 26 28 30 6 30 29 31 24 23 30 16 12 5 7 12 11 13
20 16 14 17 19 16 17 18 19 14 12 11 9 9 14 9 9 7 5 5 3 7 10 10 16 30 15 16 53 24 24 16 16 11 18 22 7 7 7 9 12 14 15 20
14 19 17 14 16 18 21 21 20 18 12 14 11 14 15 13 13 10 6 3 3 8 6 17 11 19 23 41 9 20 21 13 14 13 13 23 25 15 9 8 10 15 19 21
17 16 19 23 22 17 18 21 20 18 18 15 4 4 12 11 10 8 6 4 5 4 8 5 11 13 9 17 24 25 21 13 17 16 18 15 5 11 11 13 16 19 22 24
16 14 16 22 22 23 20 23 21 23 22 13 14 11 16 13 10 10 7 4 3 4 8 10 14 11 19 18 15 16 18 14 13 13 8 5 3 10 12 15 18 21 24 25
15 14 13 18 22 21 20 15 21 19 14 16 14 13 16 13 10 7 6 6 3 4 9 11 17 13 14 12 18 19 13 10 10 8 9 9 11 14 16 18 21 23 23 24
15 13 12 14 15 23 17 13 16 13 15 16 16 17 14 13 11 8 5 6 9 11 10 10 16 17 20 18 15 11 10 9 8 8 10 13 15 16 17 18 19 20 20 24
20 14 13 12 16 16 24 18 14 14 13 13 21 18 17 16 14 10 9 12 14 15 14 17 17 19 18 15 11 8 8 8 8 12 14 15 16 17 18 19 21 23 22 23
22 18 12 12 17 20 14 15 12 11 10 13 19 15 17 13 6 9 13 15 14 17 15 15 16 14 12 9 8 8 9 10 12 13 14 15 17 18 18 22 23 21 23 23
9 8 18 14 13 15 3 7 9 14 6 14 16 13 14 8 5 16 14 14 16 14 14 13 13 11 10 8 8 8 8 11 12 15 16 17 18 21 21 21 23 24 23 24
11 10 11 11 15 18 11 14 14 8 11 12 13 13 19 19 18 17 16 14 15 14 11 10 10 9 10 11 10 9 9 10 12 16 17 18 20 20 20 21 23 21 21 22
17 14 12 2 3 10 15 18 11 11 11 10 11 18 19 18 17 16 13 12 12 12 9 9 8 10 13 10 9 9 9 11 16 18 18 19 22 24 18 20 24 18 21 19
14 21 12 9 9 14 13 14 12 11 13 11 18 16 17 18 17 15 12 10 11 12 9 9 7 6 4 6 7 7 8 13 16 17 19 21 21 21 22 23 22 19 21 19
13 10 10 6 15 15 14 12 13 13 13 16 15 15 17 18 16 13 11 10 12 9 6 6 6 6 9 9 10 6 9 14 15 16 18 18 20 21 20 22 21 22 20 17
2 10 5 10 16 8 15 12 16 16 16 16 18 18 17 16 14 15 11 11 10 7 6 6 8 7 8 8 9 13 14 14 14 16 15 17 18 20 20 21 22 20 23 14

GFSCGP_925_spd_153.txt.gz
Wind_Speed
6 2 8 14 14 16 8 4 10 9 9 10 19 20 23 21 18 17 15 15 14 14 17 27 30 28 28 39 36 31 24 34 31 27 23 21 20 16 19 13 8 2 11 9
5 9 16 16 17 12 7 8 11 8 8 10 14 17 20 21 21 21 19 16 17 15 16 23 27 30 34 36 33 30 29 25 30 27 23 20 20 13 12 12 7 11 16 12
9 14 19 18 15 1 8 2 4 13 6 6 13 8 16 19 16 19 20 19 18 20 19 17 23 28 33 35 36 34 32 29 28 27 23 22 20 16 13 15 13 17 15 11
11 19 16 14 6 5 6 7 8 14 7 4 7 5 7 11 20 22 21 20 19 19 19 18 23 25 30 34 37 36 35 33 29 28 23 25 22 19 17 15 7 11 19 12
12 11 12 12 5 6 8 5 6 2 1 1 5 5 14 9 9 20 22 22 21 21 23 21 25 30 32 33 36 37 35 33 31 29 30 27 24 21 19 17 17 12 20 21
12 10 8 6 5 9 9 2 5 6 4 5 11 8 8 13 16 16 21 23 23 22 22 22 32 31 31 32 36 37 37 36 33 32 32 29 25 24 18 10 22 13 6 19
10 14 10 6 6 7 6 6 1 3 2 7 11 3 8 18 15 15 19 24 20 24 22 21 21 28 30 32 35 37 39 38 36 34 31 31 29 24 21 17 17 13 13 17
7 8 9 7 7 9 9 7 6 7 4 8 10 7 5 8 14 9 10 13 17 23 22 24 23 31 34 33 34 38 40 37 37 34 33 30 30 32 26 20 17 14 10 18
9 9 9 6 6 7 7 5 7 3 6 3 1 7 5 9 8 7 8 8 10 22 21 23 24 33 33 34 32 37 37 35 36 36 32 27 26 25 22 20 18 16 11 7
7 5 10 9 7 9 9 8 1 3 4 5 3 5 5 7 7 7 6 3 2 11 18 20 20 32 35 34 32 34 34 35 35 29 22 21 21 22 19 15 17 11 15 11
16 5 12 7 10 10 5 2 3 4 5 4 3 5 3 8 7 8 7 3 8 10 4 18 12 11 25 24 11 13 16 14 26 25 2 11 19 13 14 11 16 22 21 12
15 3 7 11 8 14 10 10 8 5 9 2 6 6 8 9 9 9 7 7 9 12 13 11 22 32 23 14 6 6 5 24 27 20 1 42 25 11 14 21 28 41 23 12
10 7 7 10 4 8 13 9 7 5 3 4 3 4 3 9 9 9 10 9 10 9 14 14 19 23 23 17 13 25 32 21 25 17 39 37 42 18 33 36 29 22 11 12
12 8 8 9 7 7 7 8 6 7 3 5 4 8 9 9 10 8 8 9 9 13 14 14 14 17 21 11 12 15 18 19 22 21 23 29 21 22 18 24 11 12 16 19
16 9 8 9 12 9 8 16 12 10 8 7 8 11 6 9 10 8 8 9 10 14 14 13 9 10 18 8 6 16 15 11 26 25 24 20 19 14 6 8 12 14 14 17
8 6 8 5 12 11 13 12 21 17 9 4 16 13 13 8 9 9 8 9 16 16 15 15 15 14 13 12 11 18 19 16 16 18 13 8 5 3 5 8 13 16 17 17
10 7 6 6 8 6 10 9 7 12 10 8 7 8 13 9 9 8 8 11 18 18 17 14 11 14 20 20 20 18 17 16 16 14 13 12 11 10 10 12 14 17 19 21
7 8 5 5 3 8 7 6 8 13 17 7 16 12 11 11 7 9 9 15 17 19 17 16 20 21 23 20 18 17 15 15 16 16 16 14 12 12 15 16 18 21 21 20
9 6 3 6 6 5 9 16 5 4 2 25 21 19 16 14 17 11 14 15 17 16 18 23 26 26 21 18 15 15 13 14 14 13 12 14 17 19 20 21 22 20 21 23
10 10 7 4 6 14 10 10 10 4 4 15 21 20 23 16 7 4 12 16 14 20 22 23 25 23 20 15 13 13 15 17 18 18 18 18 19 20 20 20 21 23 23 23
4 4 9 4 4 6 4 1 4 8 9 15 21 22 19 7 9 14 15 13 19 24 25 25 22 21 18 16 15 17 17 18 16 19 19 18 20 20 19 21 23 26 27 24
5 6 4 3 5 7 4 4 5 6 12 15 15 13 18 22 19 18 15 13 14 16 21 22 23 21 17 13 13 13 14 12 15 17 17 18 19 22 24 21 23 26 22 23
5 7 5 5 8 4 3 9 7 17 18 14 23 22 23 20 19 17 14 13 14 20 22 23 22 17 13 11 10 10 9 12 18 18 20 20 22 19 21 24 21 21 22 20
5 6 5 5 1 7 11 8 7 15 21 20 23 23 23 22 18 16 14 12 13 20 18 17 15 17 17 12 8 9 10 14 16 16 18 22 20 20 22 19 20 23 21 18
11 9 7 4 8 9 9 7 10 20 20 21 19 21 22 22 16 15 13 12 17 18 16 16 16 13 12 12 15 12 13 14 15 15 15 16 17 19 20 20 20 21 21 13
1 6 6 5 7 9 3 7 17 19 17 19 25 20 18 21 19 16 12 18 18 16 17 17 14 11 10 13 13 15 14 14 12 12 14 15 18 20 18 21 21 19 22 9

GFSCGP_925_spd_156.txt.gz
Wind_Speed
3 2 9 12 5 5 5 5 7 5 9 6 13 13 22 20 17 14 18 18 17 18 26 30 33 32 33 34 34 33 33 30 28 26 24 21 19 18 14 13 12 11 15 19
4 9 14 6 8 8 9 12 11 5 19 6 11 18 20 21 21 20 19 18 20 18 15 26 32 31 35 37 37 35 36 35 32 28 25 21 18 16 16 14 17 20 22 19
7 11 2 6 11 9 11 8 6 13 11 8 11 4 15 16 15 16 17 17 16 20 19 19 27 33 35 35 40 40 40 34 35 32 26 22 16 16 14 13 15 17 19 17
7 10 8 7 10 7 8 1 6 6 6 6 7 5 10 17 17 17 18 17 19 19 19 19 25 27 33 38 42 43 40 34 30 32 29 25 23 24 24 20 21 17 13 12
10 5 8 7 15 7 7 2 6 5 3 6 3 5 5 13 14 18 20 21 22 21 21 22 27 33 37 37 39 44 42 38 35 32 32 30 26 26 21 20 19 19 17 19
9 4 5 10 14 13 3 3 8 5 3 2 7 7 4 16 27 23 23 23 22 21 21 22 32 32 31 35 39 42 41 40 37 36 33 31 28 25 23 23 24 25 22 22
7 11 10 5 8 5 7 7 4 4 4 6 3 2 10 19 19 28 26 25 23 21 19 19 19 26 28 33 36 38 41 40 39 36 34 30 28 27 23 21 23 20 19 19
7 7 7 5 8 9 5 8 6 5 2 5 5 6 12 14 21 21 26 26 21 20 19 20 22 29 31 33 35 33 35 30 33 33 32 29 26 25 24 20 18 21 19 11
6 7 5 5 6 10 5 2 8 7 2 3 4 5 6 8 9 10 13 17 20 21 20 21 23 30 28 12 9 16 24 25 28 29 26 25 20 19 19 18 21 21 16 8
3 2 6 11 3 1 9 5 1 3 1 4 5 4 4 5 7 6 8 8 15 15 19 17 16 14 18 20 13 14 17 15 9 8 4 3 21 16 12 13 29 20 19 10
9 4 7 0 4 9 1 1 5 5 5 6 1 6 6 6 9 9 9 6 6 9 10 9 14 24 28 29 22 24 21 18 11 18 10 26 18 35 20 18 38 37 27 25
10 6 9 14 10 6 9 12 7 5 5 1 4 5 5 4 8 11 10 8 5 6 11 14 19 24 24 25 21 24 22 17 19 21 22 20 27 34 30 29 36 34 36 36
8 4 8 10 7 4 6 6 6 5 4 6 6 5 2 2 8 9 14 10 7 10 11 11 13 16 18 15 14 11 9 6 7 14 18 25 32 31 25 33 25 27 27 30
13 6 10 12 8 4 5 7 6 8 4 5 6 6 5 5 10 8 10 11 11 8 8 8 9 14 18 16 15 17 14 10 8 9 13 19 25 26 28 30 29 20 23 23
14 10 8 8 9 6 3 6 10 7 7 7 8 12 11 12 12 11 14 12 13 11 10 9 9 10 15 19 24 25 22 18 12 12 6 8 11 17 19 20 15 13 11 12
5 7 8 10 9 8 5 9 8 6 2 3 5 6 7 5 9 14 17 16 13 12 11 10 7 12 15 21 25 25 24 21 16 14 10 7 8 8 11 6 6 9 13 16
7 8 5 10 5 8 3 7 5 6 5 8 6 8 10 5 10 16 16 18 15 13 14 10 7 12 17 21 24 22 20 17 14 11 8 7 6 3 4 9 11 12 15 15
5 7 5 8 5 10 8 7 8 6 7 7 3 14 13 11 7 11 16 20 17 16 14 12 16 19 24 26 24 22 23 21 18 14 10 7 4 3 5 7 9 11 12 15
6 5 3 6 6 4 4 6 6 5 5 4 11 18 16 18 19 8 9 17 19 17 19 19 23 26 25 24 23 24 20 17 13 11 10 10 10 12 13 13 12 13 14 17
6 4 5 4 6 11 7 5 6 6 4 7 22 21 21 12 7 4 7 15 15 23 23 24 26 25 23 19 18 18 17 15 14 12 9 6 6 8 8 10 13 16 16 16
3 3 8 3 3 6 6 10 6 6 8 13 20 24 19 8 7 14 14 14 22 24 23 25 25 24 23 19 16 17 13 12 9 8 7 8 10 11 12 14 13 14 14 13
6 6 4 3 4 4 4 0 10 8 2 16 9 8 18 22 23 20 18 18 19 21 21 25 25 23 19 15 14 15 14 9 12 12 12 17 15 16 16 16 16 16 16 17
2 7 6 8 7 6 3 8 6 9 13 9 19 17 26 25 22 21 16 15 16 22 22 23 24 23 17 15 15 16 11 12 14 14 15 15 15 16 18 16 19 16 19 16
3 4 4 3 1 3 3 5 3 17 16 16 19 23 24 25 21 19 18 16 17 21 21 24 26 21 20 18 15 12 10 11 12 15 16 16 19 21 19 19 20 22 15 13
5 4 5 1 3 6 10 4 13 15 20 21 19 23 24 24 19 19 16 13 18 20 22 25 24 23 20 14 12 12 13 13 14 14 13 12 15 18 21 19 20 23 14 16
2 7 4 6 8 6 3 6 14 23 21 23 26 19 16 21 20 17 13 19 21 21 25 24 22 23 17 13 13 14 14 13 12 10 11 12 13 12 15 17 17 18 18 13